owner,sensor,date,latitude,longitude,vertical_datum,direction_of_sea_water_velocity,sea_water_speed,upward_sea_water_velocity,qcFlag 
TABS,ioos:station:wmo:42043:1,2009-08-01T00:00:00Z,28.9818,-94.9186,2.0,51.91067413,18.98229965,-99999.0,'11111222,11111222,99999999' 
TABS,ioos:station:wmo:42043:1,2009-08-01T00:30:00Z,28.9818,-94.9186,2.0,51.30553646,20.60244646,-99999.0,'11111222,11111222,99999999' 
TABS,ioos:station:wmo:42043:1,2009-08-01T01:00:00Z,28.9818,-94.9186,2.0,46.89529891,20.31214661,-99999.0,'11111222,11111222,99999999' 
TABS,ioos:station:wmo:42043:1,2009-08-01T01:30:00Z,28.9818,-94.9186,2.0,51.05824419,21.57410485,-99999.0,'11111222,11111222,99999999' 
TABS,ioos:station:wmo:42043:1,2009-08-01T02:00:00Z,28.9818,-94.9186,2.0,44.44955543,22.0768929,-99999.0,'11111222,11111222,99999999' 
TABS,ioos:station:wmo:42043:1,2009-08-01T02:30:00Z,28.9818,-94.9186,2.0,43.31885001,24.34202333,-99999.0,'11111222,11111222,99999999' 
TABS,ioos:station:wmo:42043:1,2009-08-01T03:00:00Z,28.9818,-94.9186,2.0,41.98198019,23.90508314,-99999.0,'11111222,11111222,99999999' 
TABS,ioos:station:wmo:42043:1,2009-08-01T03:30:00Z,28.9818,-94.9186,2.0,41.60211628,25.64943079,-99999.0,'11111222,11111222,99999999' 
TABS,ioos:station:wmo:42043:1,2009-08-01T04:00:00Z,28.9818,-94.9186,2.0,39.26774358,25.91068505,-99999.0,'11111222,11111222,99999999' 
TABS,ioos:station:wmo:42043:1,2009-08-01T04:30:00Z,28.9818,-94.9186,2.0,40.20360283,29.68222532,-99999.0,'11111222,11111222,99999999' 
TABS,ioos:station:wmo:42043:1,2009-08-01T05:00:00Z,28.9818,-94.9186,2.0,35.91041258,28.42198621,-99999.0,'11111222,11111222,99999999' 
TABS,ioos:station:wmo:42043:1,2009-08-01T05:30:00Z,28.9818,-94.9186,2.0,37.12041053,28.83227532,-99999.0,'11111222,11111222,99999999' 
TABS,ioos:station:wmo:42043:1,2009-08-01T06:00:00Z,28.9818,-94.9186,2.0,36.72997919,25.36607577,-99999.0,'11111222,11111222,99999999' 
TABS,ioos:station:wmo:42043:1,2009-08-01T06:30:00Z,28.9818,-94.9186,2.0,37.76420577,25.37509015,-99999.0,'11111222,11111222,99999999' 
TABS,ioos:station:wmo:42043:1,2009-08-01T07:00:00Z,28.9818,-94.9186,2.0,40.396837,29.16323199,-99999.0,'11111222,11111222,99999999' 
TABS,ioos:station:wmo:42043:1,2009-08-01T07:30:00Z,28.9818,-94.9186,2.0,39.1371139,25.12766802,-99999.0,'11111222,11111222,99999999' 
TABS,ioos:station:wmo:42043:1,2009-08-01T08:00:00Z,28.9818,-94.9186,2.0,43.6265219,25.95827806,-99999.0,'11111222,11111222,99999999' 
TABS,ioos:station:wmo:42043:1,2009-08-01T08:30:00Z,28.9818,-94.9186,2.0,46.39898827,23.17172415,-99999.0,'11111222,11111222,99999999' 
TABS,ioos:station:wmo:42043:1,2009-08-01T09:00:00Z,28.9818,-94.9186,2.0,40.9220975,18.9914744,-99999.0,'11111222,11111222,99999999' 
TABS,ioos:station:wmo:42043:1,2009-08-01T09:30:00Z,28.9818,-94.9186,2.0,47.98577541,21.99258966,-99999.0,'11111222,11111222,99999999' 
TABS,ioos:station:wmo:42043:1,2009-08-01T10:00:00Z,28.9818,-94.9186,2.0,54.5228579,19.83185821,-99999.0,'11111222,11111222,99999999' 
TABS,ioos:station:wmo:42043:1,2009-08-01T10:30:00Z,28.9818,-94.9186,2.0,41.50612339,19.02825793,-99999.0,'11111222,11111222,99999999' 
TABS,ioos:station:wmo:42043:1,2009-08-01T11:00:00Z,28.9818,-94.9186,2.0,46.50603323,21.25590036,-99999.0,'11111222,11111222,99999999' 
TABS,ioos:station:wmo:42043:1,2009-08-01T11:30:00Z,28.9818,-94.9186,2.0,42.19535646,22.10943011,-99999.0,'11111222,11111222,99999999' 
TABS,ioos:station:wmo:42043:1,2009-08-01T12:00:00Z,28.9818,-94.9186,2.0,52.6456128,21.04675272,-99999.0,'11111222,11111222,99999999' 
TABS,ioos:station:wmo:42043:1,2009-08-01T12:30:00Z,28.9818,-94.9186,2.0,57.5742843,19.3582024,-99999.0,'11111222,11111222,99999999' 
TABS,ioos:station:wmo:42043:1,2009-08-01T13:00:00Z,28.9818,-94.9186,2.0,47.23379459,25.03646141,-99999.0,'11111222,11111222,99999999' 
TABS,ioos:station:wmo:42043:1,2009-08-01T13:30:00Z,28.9818,-94.9186,2.0,63.58271441,19.08266753,-99999.0,'11111222,11111222,99999999' 
TABS,ioos:station:wmo:42043:1,2009-08-01T14:00:00Z,28.9818,-94.9186,2.0,46.95777926,17.80119659,-99999.0,'11111222,11111222,99999999' 
TABS,ioos:station:wmo:42043:1,2009-08-01T14:30:00Z,28.9818,-94.9186,2.0,49.11792454,17.92192512,-99999.0,'11111222,11111222,99999999' 
TABS,ioos:station:wmo:42043:1,2009-08-01T15:00:00Z,28.9818,-94.9186,2.0,56.32533504,20.74024108,-99999.0,'11111222,11111222,99999999' 
TABS,ioos:station:wmo:42043:1,2009-08-01T15:30:00Z,28.9818,-94.9186,2.0,54.94065502,20.89042843,-99999.0,'11111222,11111222,99999999' 
TABS,ioos:station:wmo:42043:1,2009-08-01T16:00:00Z,28.9818,-94.9186,2.0,49.20467905,23.05007809,-99999.0,'11111222,11111222,99999999' 
TABS,ioos:station:wmo:42043:1,2009-08-01T16:30:00Z,28.9818,-94.9186,2.0,55.97573474,21.39237715,-99999.0,'11111222,11111222,99999999' 
TABS,ioos:station:wmo:42043:1,2009-08-01T17:00:00Z,28.9818,-94.9186,2.0,67.88335064,20.5846399,-99999.0,'11111222,11111222,99999999' 
TABS,ioos:station:wmo:42043:1,2009-08-01T17:30:00Z,28.9818,-94.9186,2.0,60.55128715,24.00104164,-99999.0,'11111222,11111222,99999999' 
TABS,ioos:station:wmo:42043:1,2009-08-01T18:00:00Z,28.9818,-94.9186,2.0,59.87486753,27.65539369,-99999.0,'11111222,11111222,99999999' 
TABS,ioos:station:wmo:42043:1,2009-08-01T18:30:00Z,28.9818,-94.9186,2.0,59.05008556,21.408169,-99999.0,'11111222,11111222,99999999' 
TABS,ioos:station:wmo:42043:1,2009-08-01T19:00:00Z,28.9818,-94.9186,2.0,63.67134387,24.93684222,-99999.0,'11111222,11111222,99999999' 
TABS,ioos:station:wmo:42043:1,2009-08-01T19:30:00Z,28.9818,-94.9186,2.0,73.14318007,21.5875705,-99999.0,'11111222,11111222,99999999' 
TABS,ioos:station:wmo:42043:1,2009-08-01T20:00:00Z,28.9818,-94.9186,2.0,70.81180869,25.49648603,-99999.0,'11111222,11111222,99999999' 
TABS,ioos:station:wmo:42043:1,2009-08-01T20:30:00Z,28.9818,-94.9186,2.0,85.83015813,20.35387924,-99999.0,'11111222,11111222,99999999' 
TABS,ioos:station:wmo:42043:1,2009-08-01T21:00:00Z,28.9818,-94.9186,2.0,75.62959083,20.79050745,-99999.0,'11111222,11111222,99999999' 
TABS,ioos:station:wmo:42043:1,2009-08-01T21:30:00Z,28.9818,-94.9186,2.0,80.48053292,19.77227605,-99999.0,'11111222,11111222,99999999' 
TABS,ioos:station:wmo:42043:1,2009-08-01T22:00:00Z,28.9818,-94.9186,2.0,74.36023855,18.02745684,-99999.0,'11111222,11111222,99999999' 
TABS,ioos:station:wmo:42043:1,2009-08-01T22:30:00Z,28.9818,-94.9186,2.0,90.36747104,18.71038482,-99999.0,'11111222,11111222,99999999' 
TABS,ioos:station:wmo:42043:1,2009-08-01T23:00:00Z,28.9818,-94.9186,2.0,75.06861774,19.87094361,-99999.0,'11111222,11111222,99999999' 
TABS,ioos:station:wmo:42043:1,2009-08-01T23:30:00Z,28.9818,-94.9186,2.0,65.9883628,21.28166347,-99999.0,'11111222,11111222,99999999' 
TABS,ioos:station:wmo:42043:1,2009-08-02T00:00:00Z,28.9818,-94.9186,2.0,68.34693394,13.63194043,-99999.0,'11111222,11111222,99999999' 
TABS,ioos:station:wmo:42043:1,2009-08-02T00:30:00Z,28.9818,-94.9186,2.0,63.78769373,15.98371671,-99999.0,'11111222,11111222,99999999' 
TABS,ioos:station:wmo:42043:1,2009-08-02T01:00:00Z,28.9818,-94.9186,2.0,69.55286357,15.40030195,-99999.0,'11111222,11111222,99999999' 
TABS,ioos:station:wmo:42043:1,2009-08-02T01:30:00Z,28.9818,-94.9186,2.0,61.48047467,18.61939043,-99999.0,'11111222,11111222,99999999' 
TABS,ioos:station:wmo:42043:1,2009-08-02T02:00:00Z,28.9818,-94.9186,2.0,49.41312779,21.6876232,-99999.0,'11111222,11111222,99999999' 
TABS,ioos:station:wmo:42043:1,2009-08-02T02:30:00Z,28.9818,-94.9186,2.0,57.99160225,19.65872071,-99999.0,'11111222,11111222,99999999' 
TABS,ioos:station:wmo:42043:1,2009-08-02T03:00:00Z,28.9818,-94.9186,2.0,47.38757234,22.06674421,-99999.0,'11111222,11111222,99999999' 
TABS,ioos:station:wmo:42043:1,2009-08-02T03:30:00Z,28.9818,-94.9186,2.0,48.11074796,23.064451,-99999.0,'11111222,11111222,99999999' 
TABS,ioos:station:wmo:42043:1,2009-08-02T04:00:00Z,28.9818,-94.9186,2.0,39.53736686,25.69984436,-99999.0,'11111222,11111222,99999999' 
TABS,ioos:station:wmo:42043:1,2009-08-02T04:30:00Z,28.9818,-94.9186,2.0,51.69447288,24.50569322,-99999.0,'11111222,11111222,99999999' 
TABS,ioos:station:wmo:42043:1,2009-08-02T05:00:00Z,28.9818,-94.9186,2.0,49.19457998,26.77915047,-99999.0,'11111222,11111222,99999999' 
TABS,ioos:station:wmo:42043:1,2009-08-02T05:30:00Z,28.9818,-94.9186,2.0,49.005111,23.99415971,-99999.0,'11111222,11111222,99999999' 
TABS,ioos:station:wmo:42043:1,2009-08-02T06:00:00Z,28.9818,-94.9186,2.0,54.93134488,23.86178954,-99999.0,'11111222,11111222,99999999' 
TABS,ioos:station:wmo:42043:1,2009-08-02T06:30:00Z,28.9818,-94.9186,2.0,57.77596443,27.21140386,-99999.0,'11111222,11111222,99999999' 
TABS,ioos:station:wmo:42043:1,2009-08-02T07:00:00Z,28.9818,-94.9186,2.0,57.47679212,26.15121603,-99999.0,'11111222,11111222,99999999' 
TABS,ioos:station:wmo:42043:1,2009-08-02T07:30:00Z,28.9818,-94.9186,2.0,56.47706972,28.5366729,-99999.0,'11111222,11111222,99999999' 
TABS,ioos:station:wmo:42043:1,2009-08-02T08:00:00Z,28.9818,-94.9186,2.0,59.10543001,29.85621041,-99999.0,'11111222,11111222,99999999' 
TABS,ioos:station:wmo:42043:1,2009-08-02T08:30:00Z,28.9818,-94.9186,2.0,64.82939158,29.03723299,-99999.0,'11111222,11111222,99999999' 
TABS,ioos:station:wmo:42043:1,2009-08-02T09:00:00Z,28.9818,-94.9186,2.0,72.91948426,28.49692089,-99999.0,'11111222,11111222,99999999' 
TABS,ioos:station:wmo:42043:1,2009-08-02T09:30:00Z,28.9818,-94.9186,2.0,67.27546313,27.77620024,-99999.0,'11111222,11111222,99999999' 
TABS,ioos:station:wmo:42043:1,2009-08-02T10:00:00Z,28.9818,-94.9186,2.0,77.16538719,29.26108166,-99999.0,'11111222,11111222,99999999' 
TABS,ioos:station:wmo:42043:1,2009-08-02T10:30:00Z,28.9818,-94.9186,2.0,75.47711636,30.26711252,-99999.0,'11111222,11111222,99999999' 
TABS,ioos:station:wmo:42043:1,2009-08-02T11:00:00Z,28.9818,-94.9186,2.0,71.33522332,31.52816201,-99999.0,'11111222,11111222,99999999' 
TABS,ioos:station:wmo:42043:1,2009-08-02T11:30:00Z,28.9818,-94.9186,2.0,64.88885448,26.79224701,-99999.0,'11111222,11111222,99999999' 
TABS,ioos:station:wmo:42043:1,2009-08-02T12:00:00Z,28.9818,-94.9186,2.0,67.46580833,33.97388409,-99999.0,'11111222,11111222,99999999' 
TABS,ioos:station:wmo:42043:1,2009-08-02T12:30:00Z,28.9818,-94.9186,2.0,71.63663715,35.45548477,-99999.0,'11111222,11111222,99999999' 
TABS,ioos:station:wmo:42043:1,2009-08-02T13:00:00Z,28.9818,-94.9186,2.0,76.11211496,36.53811435,-99999.0,'11111222,11111222,99999999' 
TABS,ioos:station:wmo:42043:1,2009-08-02T13:30:00Z,28.9818,-94.9186,2.0,72.42766389,32.55933814,-99999.0,'11111222,11111222,99999999' 
TABS,ioos:station:wmo:42043:1,2009-08-02T14:00:00Z,28.9818,-94.9186,2.0,64.57852676,36.52673678,-99999.0,'11111222,11111222,99999999' 
TABS,ioos:station:wmo:42043:1,2009-08-02T14:30:00Z,28.9818,-94.9186,2.0,69.55076848,33.91741293,-99999.0,'11111222,11111222,99999999' 
TABS,ioos:station:wmo:42043:1,2009-08-02T15:00:00Z,28.9818,-94.9186,2.0,69.39431738,32.39232008,-99999.0,'11111222,11111222,99999999' 
TABS,ioos:station:wmo:42043:1,2009-08-02T15:30:00Z,28.9818,-94.9186,2.0,68.96133949,34.31768203,-99999.0,'11111222,11111222,99999999' 
TABS,ioos:station:wmo:42043:1,2009-08-02T16:00:00Z,28.9818,-94.9186,2.0,68.55548129,36.07759,-99999.0,'11111222,11111222,99999999' 
TABS,ioos:station:wmo:42043:1,2009-08-02T16:30:00Z,28.9818,-94.9186,2.0,69.03986632,36.17363681,-99999.0,'11111222,11111222,99999999' 
TABS,ioos:station:wmo:42043:1,2009-08-02T17:00:00Z,28.9818,-94.9186,2.0,72.41389377,36.07605993,-99999.0,'11111222,11111222,99999999' 
TABS,ioos:station:wmo:42043:1,2009-08-02T17:30:00Z,28.9818,-94.9186,2.0,72.55330785,34.2873519,-99999.0,'11111222,11111222,99999999' 
TABS,ioos:station:wmo:42043:1,2009-08-02T18:00:00Z,28.9818,-94.9186,2.0,79.18083044,36.86530211,-99999.0,'11111222,11111222,99999999' 
TABS,ioos:station:wmo:42043:1,2009-08-02T18:30:00Z,28.9818,-94.9186,2.0,81.1009236,36.45888095,-99999.0,'11111222,11111222,99999999' 
TABS,ioos:station:wmo:42043:1,2009-08-02T19:00:00Z,28.9818,-94.9186,2.0,79.69375615,36.0516768,-99999.0,'11111222,11111222,99999999' 
TABS,ioos:station:wmo:42043:1,2009-08-02T19:30:00Z,28.9818,-94.9186,2.0,81.7970723,34.48279716,-99999.0,'11111222,11111222,99999999' 
TABS,ioos:station:wmo:42043:1,2009-08-02T20:00:00Z,28.9818,-94.9186,2.0,84.23738059,30.67501915,-99999.0,'11111222,11111222,99999999' 
TABS,ioos:station:wmo:42043:1,2009-08-02T20:30:00Z,28.9818,-94.9186,2.0,87.84557102,29.26068352,-99999.0,'11111222,11111222,99999999' 
TABS,ioos:station:wmo:42043:1,2009-08-02T21:00:00Z,28.9818,-94.9186,2.0,89.41110661,30.16159313,-99999.0,'11111222,11111222,99999999' 
TABS,ioos:station:wmo:42043:1,2009-08-02T21:30:00Z,28.9818,-94.9186,2.0,89.14839946,26.91297271,-99999.0,'11111222,11111222,99999999' 
TABS,ioos:station:wmo:42043:1,2009-08-02T22:00:00Z,28.9818,-94.9186,2.0,90.68378537,27.65196919,-99999.0,'11111222,11111222,99999999' 
TABS,ioos:station:wmo:42043:1,2009-08-02T22:30:00Z,28.9818,-94.9186,2.0,82.9642195,29.47192902,-99999.0,'11111222,11111222,99999999' 
TABS,ioos:station:wmo:42043:1,2009-08-02T23:00:00Z,28.9818,-94.9186,2.0,77.41778248,27.91028484,-99999.0,'11111222,11111222,99999999' 
TABS,ioos:station:wmo:42043:1,2009-08-02T23:30:00Z,28.9818,-94.9186,2.0,68.12216685,26.43375494,-99999.0,'11111222,11111222,99999999' 
TABS,ioos:station:wmo:42043:1,2009-08-03T00:00:00Z,28.9818,-94.9186,2.0,70.52994207,27.48151561,-99999.0,'11111222,11111222,99999999' 
TABS,ioos:station:wmo:42043:1,2009-08-03T00:30:00Z,28.9818,-94.9186,2.0,67.16321736,26.20403404,-99999.0,'11111222,11111222,99999999' 
TABS,ioos:station:wmo:42043:1,2009-08-03T01:00:00Z,28.9818,-94.9186,2.0,64.1588339,25.48873673,-99999.0,'11111222,11111222,99999999' 
TABS,ioos:station:wmo:42043:1,2009-08-03T01:30:00Z,28.9818,-94.9186,2.0,57.91162918,27.78469363,-99999.0,'11111222,11111222,99999999' 
TABS,ioos:station:wmo:42043:1,2009-08-03T02:00:00Z,28.9818,-94.9186,2.0,62.65151305,26.49093807,-99999.0,'11111222,11111222,99999999' 
TABS,ioos:station:wmo:42043:1,2009-08-03T02:30:00Z,28.9818,-94.9186,2.0,56.45711143,28.087337,-99999.0,'11111222,11111222,99999999' 
TABS,ioos:station:wmo:42043:1,2009-08-03T03:00:00Z,28.9818,-94.9186,2.0,57.06305057,28.48908914,-99999.0,'11111222,11111222,99999999' 
TABS,ioos:station:wmo:42043:1,2009-08-03T03:30:00Z,28.9818,-94.9186,2.0,50.05197969,33.96700899,-99999.0,'11111222,11111222,99999999' 
TABS,ioos:station:wmo:42043:1,2009-08-03T04:00:00Z,28.9818,-94.9186,2.0,50.57793522,33.10083534,-99999.0,'11111222,11111222,99999999' 
TABS,ioos:station:wmo:42043:1,2009-08-03T04:30:00Z,28.9818,-94.9186,2.0,47.54104126,34.93006298,-99999.0,'11111222,11111222,99999999' 
TABS,ioos:station:wmo:42043:1,2009-08-03T05:00:00Z,28.9818,-94.9186,2.0,51.35102928,33.30405531,-99999.0,'11111222,11111222,99999999' 
TABS,ioos:station:wmo:42043:1,2009-08-03T05:30:00Z,28.9818,-94.9186,2.0,49.41077824,36.31849804,-99999.0,'11111222,11111222,99999999' 
TABS,ioos:station:wmo:42043:1,2009-08-03T06:00:00Z,28.9818,-94.9186,2.0,48.84423182,30.48124177,-99999.0,'11111222,11111222,99999999' 
TABS,ioos:station:wmo:42043:1,2009-08-03T06:30:00Z,28.9818,-94.9186,2.0,46.90703232,30.38706468,-99999.0,'11111222,11111222,99999999' 
TABS,ioos:station:wmo:42043:1,2009-08-03T07:00:00Z,28.9818,-94.9186,2.0,46.94780193,28.71098048,-99999.0,'11111222,11111222,99999999' 
TABS,ioos:station:wmo:42043:1,2009-08-03T07:30:00Z,28.9818,-94.9186,2.0,46.63979997,29.65405874,-99999.0,'11111222,11111222,99999999' 
TABS,ioos:station:wmo:42043:1,2009-08-03T08:00:00Z,28.9818,-94.9186,2.0,52.0259776,26.36089528,-99999.0,'11111222,11111222,99999999' 
TABS,ioos:station:wmo:42043:1,2009-08-03T08:30:00Z,28.9818,-94.9186,2.0,51.5612363,27.5383242,-99999.0,'11111222,11111222,99999999' 
TABS,ioos:station:wmo:42043:1,2009-08-03T09:00:00Z,28.9818,-94.9186,2.0,52.22251212,29.92175463,-99999.0,'11111222,11111222,99999999' 
TABS,ioos:station:wmo:42043:1,2009-08-03T09:30:00Z,28.9818,-94.9186,2.0,55.03177143,25.73617299,-99999.0,'11111222,11111222,99999999' 
TABS,ioos:station:wmo:42043:1,2009-08-03T10:00:00Z,28.9818,-94.9186,2.0,58.68439199,22.89549301,-99999.0,'11111222,11111222,99999999' 
TABS,ioos:station:wmo:42043:1,2009-08-03T10:30:00Z,28.9818,-94.9186,2.0,59.77334399,23.59844275,-99999.0,'11111222,11111222,99999999' 
TABS,ioos:station:wmo:42043:1,2009-08-03T11:00:00Z,28.9818,-94.9186,2.0,55.48929997,26.14015493,-99999.0,'11111222,11111222,99999999' 
TABS,ioos:station:wmo:42043:1,2009-08-03T11:30:00Z,28.9818,-94.9186,2.0,57.25957589,26.10777662,-99999.0,'11111222,11111222,99999999' 
TABS,ioos:station:wmo:42043:1,2009-08-03T12:00:00Z,28.9818,-94.9186,2.0,58.88270861,21.74952873,-99999.0,'11111222,11111222,99999999' 
TABS,ioos:station:wmo:42043:1,2009-08-03T12:30:00Z,28.9818,-94.9186,2.0,63.61271721,17.30277723,-99999.0,'11111222,11111222,99999999' 
TABS,ioos:station:wmo:42043:1,2009-08-03T13:00:00Z,28.9818,-94.9186,2.0,59.14275388,18.46356954,-99999.0,'11111222,11111222,99999999' 
TABS,ioos:station:wmo:42043:1,2009-08-03T13:30:00Z,28.9818,-94.9186,2.0,56.19132547,21.42256754,-99999.0,'11111222,11111222,99999999' 
TABS,ioos:station:wmo:42043:1,2009-08-03T14:00:00Z,28.9818,-94.9186,2.0,62.51489546,18.93746551,-99999.0,'11111222,11111222,99999999' 
TABS,ioos:station:wmo:42043:1,2009-08-03T14:30:00Z,28.9818,-94.9186,2.0,57.90788919,20.2905027,-99999.0,'11111222,11111222,99999999' 
TABS,ioos:station:wmo:42043:1,2009-08-03T15:00:00Z,28.9818,-94.9186,2.0,59.63766624,21.40591741,-99999.0,'11111222,11111222,99999999' 
TABS,ioos:station:wmo:42043:1,2009-08-03T15:30:00Z,28.9818,-94.9186,2.0,57.58491392,18.82286376,-99999.0,'11111222,11111222,99999999' 
TABS,ioos:station:wmo:42043:1,2009-08-03T16:00:00Z,28.9818,-94.9186,2.0,66.08882685,22.69807261,-99999.0,'11111222,11111222,99999999' 
TABS,ioos:station:wmo:42043:1,2009-08-03T16:30:00Z,28.9818,-94.9186,2.0,72.95202531,21.55723776,-99999.0,'11111222,11111222,99999999' 
TABS,ioos:station:wmo:42043:1,2009-08-03T17:00:00Z,28.9818,-94.9186,2.0,67.50287234,22.63235958,-99999.0,'11111222,11111222,99999999' 
TABS,ioos:station:wmo:42043:1,2009-08-03T17:30:00Z,28.9818,-94.9186,2.0,62.77929542,18.75736655,-99999.0,'11111222,11111222,99999999' 
TABS,ioos:station:wmo:42043:1,2009-08-03T18:00:00Z,28.9818,-94.9186,2.0,69.32774893,19.03561136,-99999.0,'11111222,11111222,99999999' 
TABS,ioos:station:wmo:42043:1,2009-08-03T18:30:00Z,28.9818,-94.9186,2.0,64.47456115,20.21290924,-99999.0,'11111222,11111222,99999999' 
TABS,ioos:station:wmo:42043:1,2009-08-03T19:00:00Z,28.9818,-94.9186,2.0,71.72895174,23.22069982,-99999.0,'11111222,11111222,99999999' 
TABS,ioos:station:wmo:42043:1,2009-08-03T19:30:00Z,28.9818,-94.9186,2.0,56.92939951,22.57761723,-99999.0,'11111222,11111222,99999999' 
TABS,ioos:station:wmo:42043:1,2009-08-03T20:00:00Z,28.9818,-94.9186,2.0,62.6881107,19.89822354,-99999.0,'11111222,11111222,99999999' 
TABS,ioos:station:wmo:42043:1,2009-08-03T20:30:00Z,28.9818,-94.9186,2.0,52.24038775,22.66673333,-99999.0,'11111222,11111222,99999999' 
TABS,ioos:station:wmo:42043:1,2009-08-03T21:00:00Z,28.9818,-94.9186,2.0,62.20653528,24.40558338,-99999.0,'11111222,11111222,99999999' 
TABS,ioos:station:wmo:42043:1,2009-08-03T21:30:00Z,28.9818,-94.9186,2.0,71.2001588,21.84545719,-99999.0,'11111222,11111222,99999999' 
TABS,ioos:station:wmo:42043:1,2009-08-03T22:00:00Z,28.9818,-94.9186,2.0,72.8294788,20.49338674,-99999.0,'11111222,11111222,99999999' 
TABS,ioos:station:wmo:42043:1,2009-08-03T22:30:00Z,28.9818,-94.9186,2.0,73.7854611,19.58920621,-99999.0,'11111222,11111222,99999999' 
TABS,ioos:station:wmo:42043:1,2009-08-03T23:00:00Z,28.9818,-94.9186,2.0,65.24965448,17.79460873,-99999.0,'11111222,11111222,99999999' 
TABS,ioos:station:wmo:42043:1,2009-08-03T23:30:00Z,28.9818,-94.9186,2.0,67.35203033,17.21769439,-99999.0,'11111222,11111222,99999999' 
TABS,ioos:station:wmo:42043:1,2009-08-04T00:00:00Z,28.9818,-94.9186,2.0,67.6177074,14.10242887,-99999.0,'11111222,11111222,99999999' 
TABS,ioos:station:wmo:42043:1,2009-08-04T00:30:00Z,28.9818,-94.9186,2.0,58.93240658,14.1846713,-99999.0,'11111222,11111222,99999999' 
TABS,ioos:station:wmo:42043:1,2009-08-04T01:00:00Z,28.9818,-94.9186,2.0,52.35721899,13.63924118,-99999.0,'11111222,11111222,99999999' 
TABS,ioos:station:wmo:42043:1,2009-08-04T01:30:00Z,28.9818,-94.9186,2.0,63.12114351,17.96036748,-99999.0,'11111222,11111222,99999999' 
TABS,ioos:station:wmo:42043:1,2009-08-04T02:00:00Z,28.9818,-94.9186,2.0,51.14929737,19.20947943,-99999.0,'11111222,11111222,99999999' 
TABS,ioos:station:wmo:42043:1,2009-08-04T02:30:00Z,28.9818,-94.9186,2.0,58.66842975,14.42332833,-99999.0,'11111222,11111222,99999999' 
TABS,ioos:station:wmo:42043:1,2009-08-04T03:00:00Z,28.9818,-94.9186,2.0,40.92815681,19.01968717,-99999.0,'11111222,11111222,99999999' 
TABS,ioos:station:wmo:42043:1,2009-08-04T03:30:00Z,28.9818,-94.9186,2.0,39.472578,20.2608983,-99999.0,'11111222,11111222,99999999' 
TABS,ioos:station:wmo:42043:1,2009-08-04T04:00:00Z,28.9818,-94.9186,2.0,40.72744931,20.21579828,-99999.0,'11111222,11111222,99999999' 
TABS,ioos:station:wmo:42043:1,2009-08-04T04:30:00Z,28.9818,-94.9186,2.0,40.06580942,20.30557805,-99999.0,'11111222,11111222,99999999' 
TABS,ioos:station:wmo:42043:1,2009-08-04T05:00:00Z,28.9818,-94.9186,2.0,41.82739989,22.10268083,-99999.0,'11111222,11111222,99999999' 
TABS,ioos:station:wmo:42043:1,2009-08-04T05:30:00Z,28.9818,-94.9186,2.0,38.10561874,25.50593068,-99999.0,'11111222,11111222,99999999' 
TABS,ioos:station:wmo:42043:1,2009-08-04T06:00:00Z,28.9818,-94.9186,2.0,34.95585591,25.86643385,-99999.0,'11111222,11111222,99999999' 
TABS,ioos:station:wmo:42043:1,2009-08-04T06:30:00Z,28.9818,-94.9186,2.0,33.05886778,26.17789144,-99999.0,'11111222,11111222,99999999' 
TABS,ioos:station:wmo:42043:1,2009-08-04T07:00:00Z,28.9818,-94.9186,2.0,38.08288403,26.36190623,-99999.0,'11111222,11111222,99999999' 
TABS,ioos:station:wmo:42043:1,2009-08-04T07:30:00Z,28.9818,-94.9186,2.0,30.56017388,23.36554729,-99999.0,'11111222,11111222,99999999' 
TABS,ioos:station:wmo:42043:1,2009-08-04T08:00:00Z,28.9818,-94.9186,2.0,43.8229631,20.65187643,-99999.0,'11111222,11111222,99999999' 
TABS,ioos:station:wmo:42043:1,2009-08-04T08:30:00Z,28.9818,-94.9186,2.0,40.75523221,19.39256816,-99999.0,'11111222,11111222,99999999' 
TABS,ioos:station:wmo:42043:1,2009-08-04T09:00:00Z,28.9818,-94.9186,2.0,38.16323658,16.3941758,-99999.0,'11111222,11111222,99999999' 
TABS,ioos:station:wmo:42043:1,2009-08-04T09:30:00Z,28.9818,-94.9186,2.0,38.71304241,18.53158655,-99999.0,'11111222,11111222,99999999' 
TABS,ioos:station:wmo:42043:1,2009-08-04T10:00:00Z,28.9818,-94.9186,2.0,36.99573895,18.23004388,-99999.0,'11111222,11111222,99999999' 
TABS,ioos:station:wmo:42043:1,2009-08-04T10:30:00Z,28.9818,-94.9186,2.0,49.02608361,15.00648193,-99999.0,'11111222,11111222,99999999' 
TABS,ioos:station:wmo:42043:1,2009-08-04T11:00:00Z,28.9818,-94.9186,2.0,47.0277171,12.19108281,-99999.0,'11111222,11111222,99999999' 
TABS,ioos:station:wmo:42043:1,2009-08-04T11:30:00Z,28.9818,-94.9186,2.0,51.65929692,14.02462121,-99999.0,'11111222,11111222,99999999' 
TABS,ioos:station:wmo:42043:1,2009-08-04T12:00:00Z,28.9818,-94.9186,2.0,45.30143192,9.411721415,-99999.0,'11133222,11111222,99999999' 
TABS,ioos:station:wmo:42043:1,2009-08-04T12:30:00Z,28.9818,-94.9186,2.0,48.63908246,11.69791862,-99999.0,'11111222,11111222,99999999' 
TABS,ioos:station:wmo:42043:1,2009-08-04T13:00:00Z,28.9818,-94.9186,2.0,51.93182496,8.31981971,-99999.0,'11133222,11111222,99999999' 
TABS,ioos:station:wmo:42043:1,2009-08-04T13:30:00Z,28.9818,-94.9186,2.0,42.70547032,16.07128184,-99999.0,'11111222,11111222,99999999' 
TABS,ioos:station:wmo:42043:1,2009-08-04T14:00:00Z,28.9818,-94.9186,2.0,38.25539172,10.1749742,-99999.0,'11111222,11111222,99999999' 
TABS,ioos:station:wmo:42043:1,2009-08-04T14:30:00Z,28.9818,-94.9186,2.0,29.0769147,12.55192814,-99999.0,'11111222,11111222,99999999' 
TABS,ioos:station:wmo:42043:1,2009-08-04T15:00:00Z,28.9818,-94.9186,2.0,43.98071733,13.91099206,-99999.0,'11111222,11111222,99999999' 
TABS,ioos:station:wmo:42043:1,2009-08-04T15:30:00Z,28.9818,-94.9186,2.0,54.00297797,13.91761474,-99999.0,'11111222,11111222,99999999' 
TABS,ioos:station:wmo:42043:1,2009-08-04T16:00:00Z,28.9818,-94.9186,2.0,39.26632987,15.6416783,-99999.0,'11111222,11111222,99999999' 